QPF
0.00 0.00 0.00 0.00 0.00 0.00 0.00 0.00 0.01 0.01 0.00 0.00 0.00 0.00 0.00 0.00 0.01 0.01 0.02 0.02 0.01 0.00 0.00 0.00 0.00 0.01 0.01 0.01 0.01 0.02 0.02 0.04 0.07 0.13 0.19 0.23 0.22 0.20
0.01 0.01 0.01 0.00 0.00 0.00 0.00 0.00 0.01 0.02 0.02 0.01 0.00 0.00 0.01 0.01 0.01 0.02 0.02 0.01 0.00 0.00 0.00 0.00 0.01 0.01 0.01 0.02 0.02 0.01 0.01 0.02 0.02 0.05 0.09 0.14 0.18 0.19
0.01 0.01 0.01 0.01 0.01 0.00 0.00 0.00 0.01 0.02 0.03 0.02 0.01 0.01 0.02 0.02 0.02 0.02 0.02 0.01 0.01 0.01 0.01 0.01 0.01 0.01 0.02 0.02 0.02 0.02 0.02 0.01 0.01 0.02 0.03 0.06 0.09 0.12
0.01 0.01 0.01 0.01 0.01 0.00 0.00 0.00 0.01 0.02 0.04 0.04 0.03 0.02 0.03 0.02 0.02 0.02 0.01 0.01 0.01 0.01 0.01 0.01 0.01 0.02 0.02 0.02 0.01 0.01 0.01 0.01 0.01 0.01 0.02 0.03 0.04 0.05
0.01 0.01 0.01 0.01 0.00 0.00 0.01 0.01 0.01 0.02 0.05 0.06 0.04 0.03 0.02 0.01 0.02 0.02 0.02 0.03 0.02 0.01 0.01 0.01 0.02 0.02 0.02 0.02 0.01 0.01 0.00 0.00 0.00 0.00 0.00 0.01 0.02 0.03
0.00 0.00 0.00 0.00 0.01 0.01 0.01 0.01 0.03 0.05 0.05 0.06 0.04 0.03 0.02 0.01 0.02 0.02 0.03 0.03 0.03 0.02 0.02 0.02 0.02 0.02 0.02 0.01 0.01 0.01 0.00 0.00 0.00 0.00 0.00 0.00 0.00 0.01
0.00 0.00 0.00 0.00 0.01 0.02 0.02 0.03 0.05 0.06 0.06 0.06 0.04 0.03 0.02 0.01 0.02 0.04 0.05 0.04 0.03 0.02 0.02 0.02 0.02 0.01 0.01 0.01 0.00 0.00 0.00 0.00 0.00 0.00 0.00 0.00 0.00 0.00
0.00 0.00 0.00 0.00 0.01 0.01 0.02 0.03 0.04 0.06 0.06 0.06 0.05 0.03 0.02 0.02 0.04 0.06 0.07 0.06 0.04 0.03 0.02 0.02 0.01 0.01 0.01 0.01 0.01 0.01 0.01 0.00 0.00 0.00 0.00 0.00 0.00 0.00
0.01 0.01 0.00 0.00 0.01 0.01 0.02 0.02 0.02 0.02 0.03 0.05 0.05 0.03 0.03 0.04 0.08 0.09 0.08 0.07 0.06 0.04 0.03 0.02 0.01 0.01 0.02 0.02 0.03 0.02 0.02 0.01 0.01 0.00 0.00 0.00 0.00 0.00
0.01 0.01 0.01 0.01 0.01 0.02 0.02 0.02 0.01 0.01 0.03 0.05 0.06 0.07 0.09 0.09 0.10 0.10 0.08 0.07 0.05 0.03 0.02 0.02 0.02 0.03 0.03 0.04 0.06 0.05 0.04 0.02 0.01 0.01 0.01 0.00 0.00 0.00
0.01 0.01 0.01 0.02 0.02 0.02 0.02 0.02 0.02 0.02 0.05 0.10 0.13 0.15 0.16 0.13 0.10 0.08 0.06 0.06 0.05 0.03 0.02 0.02 0.03 0.04 0.05 0.07 0.07 0.09 0.09 0.07 0.04 0.03 0.02 0.01 0.00 0.00
0.01 0.01 0.01 0.02 0.02 0.02 0.03 0.03 0.03 0.03 0.07 0.12 0.18 0.19 0.15 0.10 0.08 0.06 0.06 0.07 0.06 0.04 0.02 0.03 0.04 0.06 0.08 0.10 0.10 0.13 0.14 0.16 0.14 0.11 0.07 0.03 0.01 0.01
0.02 0.01 0.02 0.02 0.03 0.03 0.04 0.04 0.05 0.06 0.10 0.15 0.17 0.14 0.09 0.05 0.04 0.04 0.04 0.04 0.04 0.03 0.02 0.04 0.06 0.07 0.10 0.13 0.15 0.18 0.19 0.19 0.18 0.19 0.14 0.07 0.03 0.02
0.02 0.02 0.03 0.04 0.05 0.06 0.06 0.07 0.09 0.11 0.12 0.15 0.12 0.08 0.04 0.03 0.03 0.02 0.02 0.02 0.02 0.02 0.03 0.04 0.07 0.10 0.11 0.12 0.17 0.20 0.21 0.22 0.21 0.20 0.16 0.11 0.06 0.04
0.02 0.03 0.06 0.08 0.10 0.10 0.11 0.12 0.12 0.12 0.12 0.10 0.06 0.04 0.03 0.03 0.03 0.03 0.03 0.02 0.02 0.03 0.03 0.04 0.07 0.10 0.10 0.10 0.15 0.16 0.18 0.22 0.21 0.19 0.14 0.09 0.06 0.03
0.02 0.05 0.10 0.13 0.15 0.14 0.12 0.10 0.10 0.11 0.09 0.05 0.03 0.03 0.03 0.03 0.04 0.05 0.05 0.04 0.03 0.04 0.05 0.06 0.08 0.10 0.09 0.08 0.09 0.11 0.13 0.20 0.22 0.16 0.11 0.10 0.08 0.06
0.03 0.05 0.08 0.11 0.13 0.13 0.10 0.08 0.08 0.07 0.05 0.03 0.03 0.03 0.04 0.04 0.05 0.05 0.04 0.04 0.04 0.05 0.06 0.08 0.10 0.09 0.07 0.07 0.07 0.09 0.12 0.19 0.20 0.14 0.10 0.15 0.21 0.23
0.05 0.08 0.11 0.12 0.13 0.12 0.10 0.08 0.06 0.05 0.03 0.03 0.03 0.03 0.04 0.04 0.05 0.04 0.04 0.03 0.03 0.04 0.05 0.08 0.09 0.06 0.05 0.08 0.11 0.10 0.13 0.17 0.18 0.14 0.11 0.16 0.27 0.32
0.05 0.09 0.11 0.12 0.11 0.10 0.07 0.05 0.05 0.04 0.03 0.03 0.03 0.04 0.04 0.04 0.04 0.04 0.04 0.04 0.04 0.04 0.04 0.05 0.05 0.04 0.02 0.09 0.18 0.15 0.12 0.14 0.15 0.17 0.15 0.14 0.18 0.22
0.06 0.10 0.11 0.11 0.10 0.08 0.06 0.05 0.04 0.04 0.04 0.03 0.04 0.04 0.05 0.04 0.04 0.04 0.04 0.04 0.03 0.03 0.02 0.02 0.02 0.02 0.01 0.03 0.10 0.14 0.12 0.11 0.11 0.12 0.13 0.12 0.11 0.11
0.07 0.08 0.09 0.09 0.08 0.08 0.07 0.05 0.04 0.04 0.04 0.04 0.05 0.05 0.05 0.04 0.04 0.03 0.03 0.02 0.02 0.01 0.01 0.01 0.01 0.01 0.01 0.00 0.02 0.05 0.07 0.07 0.06 0.07 0.07 0.07 0.07 0.07
0.07 0.07 0.07 0.07 0.07 0.07 0.06 0.05 0.04 0.04 0.04 0.04 0.05 0.06 0.05 0.05 0.04 0.03 0.03 0.02 0.01 0.01 0.01 0.01 0.01 0.00 0.00 0.00 0.01 0.01 0.02 0.02 0.02 0.02 0.02 0.03 0.03 0.04
0.07 0.06 0.05 0.05 0.05 0.05 0.05 0.04 0.04 0.05 0.05 0.05 0.05 0.05 0.04 0.04 0.03 0.03 0.02 0.01 0.01 0.01 0.00 0.00 0.00 0.00 0.00 0.00 0.00 0.01 0.01 0.00 0.00 0.00 0.00 0.00 0.00 0.01
MSLP
1018.97 1018.82 1018.67 1018.50 1018.27 1017.96 1017.56 1017.05 1016.44 1015.76 1015.04 1014.30 1013.62 1013.00 1012.50 1012.11 1011.85 1011.70 1011.64 1011.64 1011.67 1011.70 1011.70 1011.65 1011.55 1011.40 1011.20 1010.97 1010.74 1010.52 1010.34 1010.22 1010.16 1010.19 1010.32 1010.54 1010.86 1011.27
1018.46 1018.34 1018.22 1018.09 1017.92 1017.67 1017.33 1016.88 1016.32 1015.67 1014.96 1014.22 1013.49 1012.81 1012.22 1011.73 1011.35 1011.09 1010.91 1010.81 1010.77 1010.74 1010.72 1010.68 1010.62 1010.54 1010.42 1010.29 1010.16 1010.03 1009.93 1009.86 1009.84 1009.89 1010.01 1010.21 1010.50 1010.87
1017.89 1017.78 1017.68 1017.59 1017.46 1017.28 1017.01 1016.63 1016.15 1015.56 1014.89 1014.16 1013.42 1012.70 1012.03 1011.44 1010.94 1010.55 1010.26 1010.06 1009.93 1009.86 1009.81 1009.79 1009.77 1009.76 1009.73 1009.70 1009.67 1009.64 1009.62 1009.62 1009.66 1009.73 1009.86 1010.05 1010.32 1010.66
1017.35 1017.24 1017.15 1017.07 1016.98 1016.84 1016.63 1016.33 1015.91 1015.39 1014.78 1014.08 1013.34 1012.59 1011.86 1011.19 1010.60 1010.11 1009.71 1009.42 1009.22 1009.10 1009.05 1009.04 1009.07 1009.12 1009.17 1009.23 1009.28 1009.34 1009.39 1009.45 1009.53 1009.64 1009.79 1010.00 1010.27 1010.61
1016.96 1016.82 1016.70 1016.61 1016.51 1016.39 1016.21 1015.95 1015.59 1015.13 1014.56 1013.90 1013.18 1012.42 1011.66 1010.93 1010.27 1009.70 1009.23 1008.88 1008.64 1008.50 1008.44 1008.46 1008.52 1008.62 1008.72 1008.83 1008.94 1009.04 1009.14 1009.24 1009.35 1009.50 1009.69 1009.94 1010.24 1010.61
1016.73 1016.53 1016.36 1016.21 1016.06 1015.91 1015.72 1015.47 1015.14 1014.71 1014.18 1013.55 1012.85 1012.10 1011.33 1010.58 1009.89 1009.29 1008.79 1008.41 1008.16 1008.02 1007.97 1008.01 1008.10 1008.21 1008.34 1008.46 1008.57 1008.67 1008.77 1008.87 1009.01 1009.19 1009.42 1009.73 1010.10 1010.52
1016.63 1016.34 1016.08 1015.83 1015.61 1015.38 1015.14 1014.86 1014.52 1014.10 1013.58 1012.98 1012.30 1011.57 1010.82 1010.09 1009.41 1008.81 1008.32 1007.96 1007.73 1007.61 1007.59 1007.64 1007.74 1007.85 1007.95 1008.03 1008.09 1008.14 1008.19 1008.27 1008.40 1008.60 1008.88 1009.25 1009.71 1010.22
1016.58 1016.18 1015.80 1015.43 1015.08 1014.76 1014.43 1014.09 1013.72 1013.28 1012.78 1012.19 1011.55 1010.85 1010.14 1009.45 1008.81 1008.26 1007.82 1007.50 1007.32 1007.24 1007.25 1007.31 1007.39 1007.46 1007.50 1007.50 1007.47 1007.42 1007.38 1007.39 1007.48 1007.68 1008.00 1008.45 1009.00 1009.63
1016.47 1015.95 1015.43 1014.93 1014.46 1014.02 1013.60 1013.19 1012.77 1012.31 1011.81 1011.25 1010.64 1010.00 1009.35 1008.72 1008.15 1007.67 1007.30 1007.06 1006.93 1006.90 1006.93 1006.99 1007.04 1007.05 1007.00 1006.88 1006.72 1006.53 1006.37 1006.29 1006.31 1006.49 1006.83 1007.34 1007.99 1008.73
1016.21 1015.58 1014.93 1014.31 1013.72 1013.18 1012.68 1012.21 1011.76 1011.29 1010.80 1010.28 1009.72 1009.14 1008.56 1008.01 1007.52 1007.12 1006.84 1006.66 1006.60 1006.61 1006.66 1006.71 1006.72 1006.65 1006.49 1006.24 1005.92 1005.59 1005.29 1005.09 1005.03 1005.16 1005.51 1006.06 1006.79 1007.64
1015.78 1015.04 1014.31 1013.59 1012.92 1012.31 1011.77 1011.27 1010.80 1010.35 1009.90 1009.42 1008.93 1008.42 1007.92 1007.46 1007.05 1006.74 1006.52 1006.41 1006.39 1006.44 1006.50 1006.52 1006.48 1006.34 1006.07 1005.69 1005.24 1004.76 1004.33 1004.00 1003.85 1003.93 1004.25 1004.82 1005.60 1006.52
1015.21 1014.41 1013.61 1012.85 1012.14 1011.51 1010.96 1010.47 1010.04 1009.63 1009.24 1008.83 1008.42 1007.99 1007.57 1007.18 1006.85 1006.60 1006.44 1006.38 1006.39 1006.45 1006.50 1006.51 1006.42 1006.21 1005.86 1005.38 1004.82 1004.22 1003.67 1003.25 1003.02 1003.03 1003.31 1003.87 1004.66 1005.62
1014.60 1013.76 1012.94 1012.17 1011.47 1010.87 1010.35 1009.92 1009.55 1009.22 1008.91 1008.59 1008.26 1007.91 1007.57 1007.25 1006.97 1006.76 1006.64 1006.60 1006.62 1006.68 1006.73 1006.71 1006.60 1006.34 1005.95 1005.42 1004.79 1004.13 1003.51 1003.01 1002.71 1002.67 1002.91 1003.43 1004.21 1005.17
1014.05 1013.21 1012.40 1011.66 1011.01 1010.46 1010.02 1009.67 1009.39 1009.15 1008.93 1008.70 1008.46 1008.19 1007.90 1007.63 1007.39 1007.21 1007.10 1007.06 1007.08 1007.13 1007.17 1007.14 1007.02 1006.77 1006.38 1005.84 1005.22 1004.55 1003.92 1003.40 1003.07 1002.99 1003.18 1003.66 1004.39 1005.32
1013.67 1012.85 1012.08 1011.39 1010.80 1010.34 1009.98 1009.72 1009.54 1009.39 1009.26 1009.12 1008.94 1008.73 1008.50 1008.26 1008.04 1007.86 1007.74 1007.69 1007.70 1007.74 1007.78 1007.77 1007.67 1007.46 1007.12 1006.65 1006.08 1005.48 1004.90 1004.42 1004.10 1004.01 1004.17 1004.60 1005.28 1006.14
1013.53 1012.73 1012.01 1011.38 1010.86 1010.47 1010.20 1010.02 1009.92 1009.85 1009.79 1009.71 1009.59 1009.42 1009.22 1009.00 1008.78 1008.60 1008.46 1008.40 1008.39 1008.43 1008.48 1008.50 1008.47 1008.33 1008.09 1007.74 1007.30 1006.81 1006.34 1005.95 1005.69 1005.63 1005.79 1006.18 1006.80 1007.60
1013.63 1012.87 1012.19 1011.62 1011.16 1010.83 1010.61 1010.50 1010.44 1010.43 1010.41 1010.36 1010.27 1010.12 1009.93 1009.71 1009.49 1009.30 1009.15 1009.07 1009.06 1009.11 1009.18 1009.26 1009.30 1009.28 1009.18 1008.98 1008.71 1008.39 1008.08 1007.82 1007.67 1007.67 1007.85 1008.23 1008.80 1009.53
1013.98 1013.25 1012.61 1012.07 1011.65 1011.35 1011.16 1011.06 1011.03 1011.02 1011.01 1010.96 1010.87 1010.73 1010.53 1010.31 1010.08 1009.88 1009.73 1009.65 1009.64 1009.70 1009.82 1009.96 1010.10 1010.20 1010.25 1010.23 1010.14 1010.02 1009.90 1009.80 1009.78 1009.88 1010.11 1010.50 1011.05 1011.72
1014.50 1013.81 1013.20 1012.69 1012.28 1011.99 1011.80 1011.68 1011.62 1011.58 1011.54 1011.47 1011.36 1011.19 1010.99 1010.76 1010.53 1010.33 1010.18 1010.10 1010.11 1010.20 1010.37 1010.57 1010.80 1011.02 1011.21 1011.36 1011.47 1011.54 1011.60 1011.68 1011.80 1012.01 1012.31 1012.73 1013.27 1013.91
1015.17 1014.52 1013.94 1013.44 1013.04 1012.73 1012.50 1012.34 1012.22 1012.13 1012.03 1011.91 1011.75 1011.56 1011.34 1011.10 1010.87 1010.68 1010.54 1010.48 1010.51 1010.63 1010.83 1011.10 1011.40 1011.72 1012.03 1012.32 1012.59 1012.83 1013.06 1013.29 1013.56 1013.87 1014.25 1014.72 1015.26 1015.88
1015.95 1015.34 1014.79 1014.31 1013.89 1013.55 1013.27 1013.05 1012.86 1012.68 1012.51 1012.32 1012.12 1011.89 1011.65 1011.41 1011.19 1011.01 1010.90 1010.86 1010.91 1011.05 1011.28 1011.58 1011.93 1012.30 1012.70 1013.09 1013.47 1013.84 1014.20 1014.56 1014.94 1015.35 1015.80 1016.31 1016.87 1017.48
1016.79 1016.24 1015.73 1015.26 1014.84 1014.46 1014.13 1013.83 1013.56 1013.30 1013.05 1012.79 1012.53 1012.27 1012.02 1011.78 1011.57 1011.42 1011.32 1011.30 1011.37 1011.53 1011.76 1012.07 1012.43 1012.83 1013.26 1013.70 1014.14 1014.58 1015.02 1015.47 1015.93 1016.41 1016.92 1017.46 1018.03 1018.64
1017.68 1017.19 1016.72 1016.27 1015.84 1015.44 1015.05 1014.69 1014.34 1014.00 1013.67 1013.36 1013.05 1012.76 1012.50 1012.26 1012.07 1011.94 1011.87 1011.87 1011.95 1012.10 1012.32 1012.61 1012.95 1013.34 1013.75 1014.19 1014.65 1015.11 1015.58 1016.07 1016.57 1017.09 1017.62 1018.18 1018.76 1019.36
Thickness
5495 5491 5487 5484 5480 5477 5474 5473 5474 5479 5485 5485 5483 5482 5481 5481 5481 5482 5484 5486 5487 5487 5488 5490 5492 5495 5499 5504 5510 5516 5522 5529 5536 5543 5550 5553 5555 5557
5484 5479 5475 5471 5467 5462 5459 5457 5456 5455 5459 5461 5461 5463 5462 5462 5464 5466 5469 5471 5473 5475 5477 5479 5481 5484 5489 5494 5500 5506 5512 5519 5525 5532 5538 5542 5545 5546
5473 5469 5465 5458 5453 5448 5443 5441 5440 5439 5440 5444 5442 5445 5446 5448 5450 5452 5457 5461 5466 5468 5469 5470 5472 5476 5480 5485 5492 5498 5504 5510 5516 5521 5526 5531 5534 5537
5463 5458 5452 5445 5439 5433 5429 5427 5426 5422 5421 5425 5428 5431 5435 5437 5439 5443 5448 5453 5456 5460 5461 5463 5465 5469 5474 5479 5485 5491 5496 5501 5507 5511 5516 5521 5525 5527
5450 5443 5437 5430 5424 5420 5416 5414 5412 5411 5411 5413 5418 5420 5425 5429 5432 5437 5441 5444 5448 5452 5455 5457 5460 5464 5468 5474 5479 5485 5490 5494 5499 5503 5506 5510 5514 5518
5435 5428 5422 5417 5413 5409 5406 5404 5403 5403 5404 5406 5410 5415 5420 5424 5427 5432 5436 5438 5441 5445 5449 5453 5456 5459 5463 5468 5474 5479 5483 5487 5491 5495 5498 5502 5506 5510
5423 5417 5412 5407 5404 5401 5399 5399 5398 5398 5400 5402 5406 5412 5417 5421 5425 5427 5429 5432 5436 5441 5446 5450 5454 5458 5462 5466 5469 5473 5477 5481 5485 5488 5492 5495 5499 5503
5412 5407 5403 5401 5400 5397 5395 5394 5394 5396 5399 5401 5405 5410 5416 5420 5422 5423 5424 5427 5434 5441 5443 5448 5451 5456 5460 5463 5467 5468 5471 5474 5479 5483 5487 5491 5494 5498
5401 5399 5397 5396 5393 5394 5393 5392 5394 5396 5398 5400 5405 5410 5415 5418 5420 5423 5426 5429 5435 5438 5439 5446 5450 5453 5456 5459 5459 5461 5465 5470 5475 5480 5485 5488 5491 5494
5393 5392 5392 5391 5390 5389 5390 5392 5396 5400 5403 5405 5408 5412 5415 5419 5422 5426 5430 5432 5434 5436 5437 5443 5449 5450 5452 5453 5454 5457 5461 5468 5476 5482 5486 5489 5490 5491
5387 5388 5387 5388 5387 5386 5388 5394 5400 5406 5409 5409 5412 5415 5419 5424 5429 5432 5434 5435 5438 5438 5437 5439 5443 5444 5446 5448 5450 5454 5461 5471 5481 5489 5492 5492 5490 5487
5382 5384 5385 5385 5386 5387 5391 5397 5403 5409 5411 5414 5416 5419 5423 5428 5433 5435 5437 5438 5440 5440 5437 5437 5439 5438 5442 5444 5445 5450 5460 5473 5486 5497 5498 5494 5487 5483
5381 5384 5386 5387 5389 5392 5396 5402 5407 5410 5412 5415 5418 5421 5425 5429 5432 5434 5435 5437 5438 5437 5435 5434 5434 5434 5435 5437 5439 5444 5453 5466 5480 5490 5492 5487 5482 5482
5380 5384 5387 5389 5393 5398 5403 5408 5411 5413 5415 5418 5420 5423 5426 5428 5430 5431 5432 5432 5432 5431 5431 5431 5430 5430 5432 5432 5431 5436 5443 5453 5464 5471 5473 5472 5472 5476
5381 5384 5388 5392 5397 5402 5405 5409 5413 5416 5418 5420 5422 5424 5425 5427 5428 5429 5429 5429 5428 5428 5427 5427 5427 5427 5428 5427 5427 5431 5436 5440 5449 5456 5460 5463 5466 5470
5384 5387 5391 5396 5399 5402 5406 5410 5413 5416 5419 5421 5423 5424 5425 5426 5427 5428 5429 5428 5427 5424 5423 5422 5423 5424 5424 5424 5426 5428 5431 5434 5438 5446 5452 5453 5455 5459
5383 5389 5394 5398 5401 5404 5407 5411 5415 5418 5420 5422 5423 5423 5424 5425 5426 5428 5428 5428 5427 5424 5422 5420 5419 5420 5421 5423 5424 5425 5428 5431 5435 5441 5447 5445 5443 5446
5385 5390 5394 5398 5402 5405 5409 5413 5416 5417 5419 5421 5422 5422 5423 5425 5426 5428 5430 5430 5429 5427 5425 5423 5423 5424 5425 5421 5419 5422 5426 5429 5432 5437 5442 5443 5437 5436
5386 5390 5394 5398 5402 5406 5410 5413 5416 5417 5418 5420 5420 5421 5423 5424 5427 5430 5432 5432 5431 5430 5429 5427 5427 5429 5428 5422 5414 5418 5424 5427 5431 5434 5436 5438 5437 5434
5383 5388 5393 5397 5402 5406 5409 5413 5415 5416 5417 5418 5420 5421 5423 5425 5429 5432 5434 5435 5435 5434 5432 5429 5427 5426 5425 5421 5418 5416 5420 5426 5430 5433 5433 5434 5433 5433
5380 5386 5392 5397 5401 5405 5409 5411 5413 5415 5416 5418 5419 5421 5424 5427 5430 5433 5435 5433 5437 5437 5435 5431 5426 5427 5427 5428 5426 5422 5421 5424 5429 5434 5437 5440 5439 5437
5378 5384 5390 5395 5400 5404 5407 5410 5412 5413 5416 5417 5419 5422 5425 5429 5432 5436 5438 5440 5440 5440 5439 5437 5434 5434 5434 5435 5433 5431 5430 5429 5430 5433 5437 5442 5447 5444
5375 5381 5388 5393 5398 5402 5406 5408 5410 5412 5414 5416 5419 5423 5427 5431 5434 5437 5439 5441 5442 5443 5443 5443 5441 5439 5438 5438 5438 5438 5437 5436 5434 5433 5431 5434 5438 5434